Location: Antin
(43.3330°N, 0.2804°E)
Time: 19:11:13
(UTC+00:00)

SME Rocket - Pass Details

Date: 17 December 2023
Orbit: 550 x 2645 km, 99.9° (Epoch: 20 February)

Event Time Altitude Azimuth Distance (km) Brightness Sun altitude
Rises 05:34:49 0° 19° (NNE) 6,096 8.2 -19.3°
Reaches altitude 10° 05:39:22 10° 31° (NNE) 5,247 8.0 -18.5°
Maximum altitude 05:50:53 28° 85° (E) 4,064 7.9 -16.5°
Drops below altitude 10° 06:01:54 10° 139° (SE) 5,080 8.6 -14.5°
Sets 06:06:05 0° 150° (SSE) 5,880 8.9 -13.8°
